Regional Weather Roundup
Issued by NWS Albany, NY

Home | Current Version | Previous Version | Text Only | Print | Product List | Glossary On
Versions: 1 2 3 4 5 6 7 8 9 10 11 12 13 14 15 16 17 18 19 20 21 22 23 24 25 26 27 28 29 30 31 32 33 34 35 36 37 38 39 40 41 42 43 44 45 46 47 48 49 50
000
ASUS41 KALY 160910
RWRALY

NEW YORK STATE HOURLY WEATHER ROUNDUP
NATIONAL WEATHER SERVICE ALBANY NY
500 AM EDT TUE SEP 16 2014

NOTE: "FAIR" INDICATES FEW OR NO CLOUDS BELOW 12,000 FEET WITH NO
SIGNIFICANT WEATHER AND/OR NO OBSTRUCTIONS TO VISIBILITY.

NYZ032-033-038>043-046>054-057>066-NYZ062>081-161000-
EAST


CITY           SKY/WX    TMP DP  RH WIND       PRES   REMARKS
ALBANY         LGT RAIN  53  50  89 CALM      30.04R
GLENS FALLS    LGT RAIN  52  49  89 CALM      30.04R FOG
POUGHKEEPSIE   CLOUDY    55  52  89 CALM      30.02F
NEWBURGH       MOCLDY    55  52  88 CALM      30.04F
MONTGOMERY     CLOUDY    53  50  89 CALM      30.02F
WHITE PLAINS   MOCLDY    56  53  90 CALM      30.03F
ISLIP          CLOUDY    59  53  80 CALM      30.03S
NEW YORK CITY  CLOUDY    63  54  72 SW6       30.03F
CENTRAL PARK   MOCLDY    63  52  67 VRB3      30.05F
$$

NYZ005>009-017-018-044>046-055-056-161000-
CENTRAL


CITY           SKY/WX    TMP DP  RH WIND       PRES   REMARKS
FULTON         LGT RAIN  55  52  89 SW5       30.01R FOG
SYRACUSE       LGT RAIN  56  54  93 S3        30.00S
ROME           LGT RAIN  52  51  97 CALM      30.02F
ELMIRA         CLOUDY    54  54 100 SW5       30.01F
BINGHAMTON     RAIN      52  51  97 CALM      30.02F FOG
MONTICELLO     CLOUDY    52  50  93 CALM      30.04S
$$

NYZ026>034-041>043-161000-
NORTH


CITY           SKY/WX    TMP DP  RH WIND       PRES   REMARKS
WATERTOWN      CLOUDY    55  50  83 CALM      29.99F
FORT DRUM      NOT AVBL
MASSENA        CLOUDY    52  52 100 SW3       29.99F
SARANAC LAKE   LGT RAIN  48  47  96 SW5       29.99S FOG
PLATTSBURGH    LGT RAIN  51  50  96 S5        30.00S
$$

NYZ001>004-010>016-019>021-161000-
WEST


CITY           SKY/WX    TMP DP  RH WIND       PRES   REMARKS
NIAGARA FALLS  CLOUDY    54  52  93 W5        30.03S FOG
BUFFALO        CLOUDY    54  50  86 W6        30.03R
DUNKIRK        CLOUDY    54  52  93 S6        30.05R
JAMESTOWN      CLOUDY    50  48  93 NW5       30.05S
WELLSVILLE     CLOUDY    51  48  89 NW6       30.04R
ROCHESTER      CLOUDY    53  52  96 W3        30.02S
PENN YAN       LGT RAIN  55  55 100 NW5       30.01F
$$

             KEY
       WCI = WIND CHILL INDEX
       VSB = VISIBILITY
       HX  = HEAT INDEX
$$


USA.gov is the U.S. government's official web portal to all federal, state and local government web resources and services.